Flag for U.S.A. Weather past 2 weeks in Kalispell, Montana, U.S.A.

Now
41 °F

Clear.


Feels Like: 41 °F
Forecast: 43 / 75 °F
Wind: No wind

Location: Kalispell - Glacier Park International

Current Time: Sep 20, 2014 at 6:21:53 AM

Latest Report: Sep 20, 2014 at 5:55 AM


Visibility: 10 mi

Pressure: 30.19 "Hg

Humidity: 100%

Dew point: 41 °F

Location of KalispellLocation

Historic Weather in Kalispell — Graph

°F

Kalispell temperature yesterday

Maximum temperature yesterday: 71 °F (at 1:55 PM)
Minimum temperature yesterday: 48 °F (at 11:55 PM)
Average temperature yesterday: 63 °F

Past Weeks' High & Low Weather Summary

 TemperatureHumidityPressure
High80 °F (Sep 17, 3:55 PM)100% (Sep 5, 6:55 AM)30.55 "Hg (Sep 5, 6:55 AM)
Low23 °F (Sep 12, 5:55 AM)20% (Sep 15, 5:55 PM)29.66 "Hg (Sep 18, 4:55 AM)
Average53 °F62%30.05 "Hg
* Reported Sep 5 4:55 AM — Sep 20 4:55 AM, Kalispell, Weather by CustomWeather, © 2014

Note: Actual official high and low records may vary slightly from our data, if they occured in-between our weather recording intervals... More about our weather records

Advertising

Kalispell weather history for previous 24 hours

 ConditionsComfort  
Time TempWeatherWind HumidityBarometerVisibility
4:55 AM
Sep 20
42 °FClear.3 mph96%30.17 "Hg10 mi
3:55 AM43 °FClear.No wind93%30.15 "Hg10 mi
2:55 AM44 °FClear.No wind93%30.13 "Hg10 mi
1:55 AM46 °FClear.No wind89%30.12 "Hg10 mi
12:55 AM47 °FPassing clouds.No wind90%30.12 "Hg10 mi
11:55 PM
Sep 19
48 °FClear.No wind86%30.10 "Hg10 mi
10:55 PM50 °FClear.3 mph80%30.08 "Hg10 mi
9:55 PM53 °FClear.6 mph74%30.06 "Hg10 mi
8:55 PM55 °FClear.7 mph67%30.05 "Hg10 mi
7:55 PM61 °FSunny.7 mph56%30.01 "Hg10 mi
6:55 PM68 °FOvercast.5 mph44%29.99 "Hg10 mi
5:55 PM71 °FOvercast.8 mph39%29.98 "Hg10 mi
4:55 PM71 °FMore clouds than sun.10 mph39%29.98 "Hg10 mi
3:55 PM70 °FOvercast.12 mph41%29.97 "Hg10 mi
2:55 PM71 °FOvercast.12 mph39%29.95 "Hg10 mi
1:55 PM71 °FMostly cloudy.13 mph39%29.94 "Hg10 mi
12:55 PM69 °FPartly sunny.13 mph42%29.93 "Hg10 mi
11:55 AM70 °FPassing clouds.14 mph44%29.94 "Hg10 mi
10:55 AM69 °FMostly cloudy.14 mph47%29.93 "Hg10 mi
9:55 AM63 °FOvercast.7 mph65%29.94 "Hg10 mi
8:55 AM59 °FMostly cloudy.3 mph81%29.91 "Hg10 mi
7:55 AM59 °FOvercast.7 mph78%29.88 "Hg10 mi
6:55 AM59 °FMostly cloudy.5 mph78%29.86 "Hg10 mi
Weather by CustomWeather, © 2014

See weather overviewHow to use our weather pages